Preview of NWS' New Version of Forecast
This preview is not operational and should not be used for support decisions.
Latest weather observations around

Chino, Chino Airport (KCNO)

Using English Units (Switch to International System of Units)
Date/ Time (PDT) Wind (mph) Vis. (mi) Weather Sky Cond. Temp (°F) Rel. Humidity Wind Chill (°F) Heat Index (°F) Pressure Precip. (in)
Air Dwpt 6 hour Altimeter (inHg) Sea level (inHg) 1 hr 3 hr 6 hr
Max Min
Sep 22 23:53 WSW 5 9 Mostly Clear FEW090 67 56     68%     29.91 29.89      
Sep 22 22:53 Calm 10 Clear CLR 69 58     68%     29.91 29.89      
Sep 22 21:53 Calm 10 Clear CLR 72 57     59%   72 29.91 29.89      
Sep 22 20:53 Calm 10 Clear CLR 76 54     47%   75 29.9 29.89      
Sep 22 19:53 WNW 6 10 Partly Cloudy SCT250 77 56     48%   77 29.89 29.87      
Sep 22 18:53 WSW 10 10 Partly Cloudy SCT250 83 49     31%   81 29.87 29.85      
Sep 22 17:53 WSW 14 10 Clear   88 46     23%   85 29.86 29.84      
Sep 22 16:53 W 13 10 Partly Cloudy SCT250 92 45     20%   88 29.85 29.83      
Sep 22 15:53 WSW 13 10 Mostly Cloudy BKN250 95 42     16%   91 29.85 29.83      
Sep 22 14:53 WSW 13 10 Mostly Cloudy BKN250 95 37     13%   90 29.86 29.84      
Sep 22 13:53 W 9 10 Mostly Cloudy BKN250 94 36     13%   89 29.87 29.85      
Sep 22 12:53 WNW 6 10 Mostly Cloudy BKN250 92 37     15%   88 29.89 29.87      
Sep 22 11:53 NNW 3 10 Mostly Cloudy BKN250 89 40     18%   85 29.91 29.89      
Sep 22 10:53 Calm 10 Mostly Cloudy BKN250 86 43     22%   83 29.93 29.91      
Sep 22 09:53 SSW 5 10 Mostly Cloudy BKN250 81 47     30%   80 29.93 29.91      
Sep 22 08:53 Calm 10 Mostly Cloudy BKN250 73 47     39%   72 29.92 29.9      
Sep 22 07:53 Calm 10 Mostly Cloudy BKN200 68 48     49%     29.9 29.88      
Sep 22 06:53 Calm 10 Partly Cloudy SCT250 60 51     72%     29.89 29.87      
Sep 22 05:53 Calm 9 Clear CLR 59 51     75%     29.88 29.86      
Sep 22 04:53 Calm 8 Clear CLR 60 54     80%     29.87 29.85      
Sep 22 03:53 Calm 8 Clear CLR 61 53     75%     29.86 29.85      
Sep 22 02:53 Calm 9 Clear CLR 63 53     70%     29.88 29.85      
Sep 22 01:53 Calm 9 Clear CLR 63 54     72%     29.89 29.87      
Sep 22 00:53 Calm 8 Clear CLR 66 54     65%     29.89 29.87      
Sep 21 23:53 Calm 6 Haze CLR 65 54     68%     29.89 29.87      
Sep 21 22:53 Calm 10 Clear CLR 66 53     63%     29.89 29.87      
Sep 21 21:53 NE 5 10 Clear CLR 72 52     49%   71 29.89 29.87      
Sep 21 20:53 SW 3 10 Clear CLR 73 52     48%   72 29.86 29.85      
Sep 21 19:53 W 9 10 Clear CLR 75 53     46%   74 29.84 29.83      
Sep 21 18:53 WSW 8 10 Clear CLR 79 58     49%   79 29.82 29.8      
Sep 21 17:53 WSW 11 10 Clear CLR 85 60     43%   85 29.8 29.79      
Sep 21 16:53 WSW 15 10 Clear CLR 89 58     35%   88 29.8 29.78      
Sep 21 15:53 SSW 16 10 Clear CLR 91 56     31%   89 29.79 29.78      
Sep 21 14:53 3 10 Clear CLR 94        %     29.81 29.79      
Sep 21 13:53 3 10 Clear CLR 94 37     14%   89 29.83 29.81      
Sep 21 12:53 S 5 10 Clear CLR 89 45     22%   86 29.86 29.85      
Sep 21 11:53 SW 3 10 Clear CLR 84 52     33%   82 29.89 29.88      
Sep 21 10:53 Calm 10 Clear CLR 80 56     44%   80 29.92 29.9      
Sep 21 09:53 Calm 10 Clear CLR 73 57     57%   73 29.93 29.92      
Sep 21 08:53 Calm 10 Clear CLR 68 57     68%     29.94 29.92      
Sep 21 07:53 Calm 10 Clear CLR 63 59     87%     29.93 29.92      
Sep 21 06:53 Calm 10 Clear CLR 58 55     90%     29.92 29.9      
Sep 21 05:53 Calm 5 Fog/Mist CLR 57 54     89%     29.91 29.89      
Sep 21 04:53 Calm 7 Clear CLR 59 56     90%     29.9 29.88      
Sep 21 03:53 Calm 8 Clear CLR 59 57     93%     29.89 29.87      
Sep 21 02:53 Calm 9 Clear CLR 62 58     86%     29.9 29.88      
Sep 21 01:53 S 3 10 Clear CLR 63 57     81%     29.91 29.89      
Sep 21 00:53 Calm 10 Clear CLR 63 57     81%     29.91 29.89      
Sep 20 23:53 Calm 10 Clear CLR 65 59     81%     29.91 29.89      
Sep 20 22:53 NNW 3 10 Clear CLR 65 57     76%     29.9 29.88      
Sep 20 21:53 NNW 3 10 Clear CLR 65 55     70%     29.89 29.87      
Sep 20 20:53 W 3 10 Clear CLR 68 56     65%     29.87 29.85      
Sep 20 19:53 W 6 10 Clear CLR 69 56     63%     29.85 29.83      
Sep 20 18:53 WSW 9 10 Clear CLR 73 57     57%   73 29.84 29.82      
Sep 20 17:53 W 14 10 Clear CLR 78 55     45%   78 29.83 29.81      
Sep 20 16:53 WSW 13 10 Clear   80 56     44%   80 29.83 29.82      
Sep 20 15:53 WSW 14 10 Clear CLR 84 56     38%   83 29.83 29.81      
Sep 20 14:53 WSW 9 10 Clear   86 52     31%   84 29.84 29.82      
Sep 20 13:53 W 11 10 Clear CLR 85 53     34%   83 29.86 29.84      
Sep 20 12:53 5 10 Clear CLR 81 53     38%   80 29.88 29.86      
Sep 20 11:53 Calm 10 Clear CLR 78 53     42%   78 29.9 29.88      
Sep 20 10:53 5 10 Clear CLR 75 57     54%   75 29.92 29.9      
Sep 20 09:53 WNW 7 10 Partly Cloudy SCT026 72 57     59%   72 29.93 29.91      
Sep 20 08:53 SW 3 10 Mostly Cloudy BKN031 69 57     65%     29.93 29.91      
Sep 20 07:53 Calm 10 Mostly Cloudy BKN031 66 57     73%     29.91 29.9      
Sep 20 06:53 Calm 10 Mostly Cloudy BKN031 63 57     81%     29.91 29.9      
Sep 20 05:53 S 5 10 Cloudy OVC024 63 57     81%     29.9 29.88      
Sep 20 04:53 SSE 3 10 Cloudy OVC022 62 57     84%     29.89 29.88      
Sep 20 03:53 W 3 10 Cloudy OVC021 63 58     84%     29.88 29.86      
Sep 20 02:53 W 5 10 Mostly Cloudy BKN016 62 58     86%     29.88 29.86      
Sep 20 02:51 W 5 10 Mostly Cloudy BKN016 63 57     83%     29.88        
Sep 20 01:53 W 5 10 Clear CLR 62 57     84%     29.88 29.86      
Sep 20 00:53 W 5 10 Partly Cloudy FEW039 SCT048 62 58     86%     29.87 29.86      
Sep 19 23:53 W 5 10 Cloudy BKN035 OVC044 65 59     81%     29.86 29.85      
Sep 19 22:53 SW 3 10 Clear CLR 64 59     84%     29.85 29.84      
Sep 19 21:53 W 7 10 Clear CLR 64 59     84%     29.84 29.83      
May 15 04:53 Calm 8 Clear CLR 53 48     83%     30 29.98      
May 12 10:53 SE 3 10 Cloudy BKN025 OVC035 61 51     70%     29.99 29.98     0
May 12 02:53 SW 7 9 Cloudy BKN023 OVC036 59 49     69%     29.89 29.88      
May 12 02:00 SW 5 10 Cloudy SCT025 OVC031 59 49     69%     29.89        
May 11 17:53 W 14 10 Cloudy OVC043 63 51     65%     29.82 29.81      
May 11 12:53 WNW 7 10 Cloudy OVC030 67 52     59%     29.87 29.85      
Jun 10 18:53 W 15 10 Mostly Cloudy FEW050 BKN200 68 53     59%     29.85 29.84      
Jun 09 20:53 WSW 9 10 Mostly Clear FEW018 67 59     76%     29.9 29.89      
Jun 09 19:53 WSW 11 10 Mostly Clear FEW040 70 59     68%     29.89 29.88      
Jun 09 15:53 SW 18 10 Mostly Clear FEW050 82 53     37%   81 29.88 29.87      
Jun 08 07:53 WSW 5 4 Haze OVC014 65 57     76%     30 29.99      
Jun 07 05:53 Calm 4 Haze OVC012 64 58     81%     29.93 29.92      
Jun 06 09:53 3 2.5 Haze OVC013 68 58     70%     29.96 29.94